AUA10A LOWW-LOWI

Flight info

Callsign AUA10A
Flight time 0h 38m
Altitude 30000
Route ODSU2C SOVIL SITNI BAGSI NANIT NANI2A
Aircraft A319/M-SDE3FGHIRWY/LB1

Departure

Time 2026-04-22 20:12
Airport Vienna International Airport (LOWW)

Arrival

Time 2026-04-22 20:50
Airport Innsbruck Airport (LOWI)
Time Latitude Longitude Altitude Speed Heading
2026-04-22 19:41 48.11824 16.56983 609 ft 0 kts 206°
2026-04-22 20:01 48.11829 16.56987 609 ft 4 kts 206°
2026-04-22 20:02 48.11853 16.57004 609 ft 4 kts 204°
2026-04-22 20:02 48.11878 16.57020 609 ft 4 kts 200°
2026-04-22 20:02 48.11904 16.57032 616 ft 4 kts 191°
2026-04-22 20:02 48.11929 16.57034 612 ft 4 kts 155°
2026-04-22 20:03 48.11939 16.57024 625 ft 0 kts 116°
2026-04-22 20:05 48.11934 16.57039 619 ft 7 kts 116°
2026-04-22 20:05 48.11893 16.57159 611 ft 15 kts 122°
2026-04-22 20:06 48.11831 16.57285 615 ft 16 kts 116°
2026-04-22 20:06 48.11741 16.57375 611 ft 18 kts 163°
2026-04-22 20:06 48.11605 16.57431 614 ft 21 kts 164°
2026-04-22 20:06 48.11459 16.57436 609 ft 22 kts 204°
2026-04-22 20:07 48.11319 16.57335 612 ft 23 kts 207°
2026-04-22 20:07 48.11188 16.57329 609 ft 20 kts 120°
2026-04-22 20:07 48.11127 16.57525 616 ft 21 kts 115°
2026-04-22 20:07 48.11053 16.57652 620 ft 10 kts 186°
2026-04-22 20:08 48.11019 16.57629 617 ft 0 kts 206°
2026-04-22 20:10 48.11017 16.57628 609 ft 2 kts 206°
2026-04-22 20:11 48.10976 16.57589 617 ft 14 kts 220°
2026-04-22 20:11 48.10953 16.57418 609 ft 16 kts 288°
2026-04-22 20:11 48.10997 16.57278 609 ft 28 kts 296°
2026-04-22 20:11 48.11218 16.56605 612 ft 112 kts 296°
2026-04-22 20:12 48.11646 16.55293 801 ft 155 kts 297°
2026-04-22 20:12 48.12060 16.53775 1528 ft 162 kts 284°
2026-04-22 20:12 48.11781 16.52048 2139 ft 193 kts 242°
2026-04-22 20:12 48.10704 16.50572 2583 ft 223 kts 223°
2026-04-22 20:13 48.09444 16.49112 3398 ft 231 kts 221°
2026-04-22 20:13 48.08167 16.47654 4446 ft 232 kts 221°
2026-04-22 20:13 48.06875 16.46133 5410 ft 247 kts 223°
2026-04-22 20:13 48.05502 16.44390 6129 ft 272 kts 224°
2026-04-22 20:14 48.04040 16.42480 7080 ft 284 kts 224°
2026-04-22 20:14 48.02539 16.40505 8232 ft 290 kts 224°
2026-04-22 20:14 48.01205 16.38242 9369 ft 293 kts 243°
2026-04-22 20:14 48.00543 16.35399 10484 ft 291 kts 267°
2026-04-22 20:15 48.00548 16.32315 11190 ft 309 kts 278°
2026-04-22 20:15 48.00702 16.28983 11732 ft 334 kts 279°
2026-04-22 20:15 48.00897 16.25415 12337 ft 353 kts 279°
2026-04-22 20:15 48.01094 16.21715 13218 ft 362 kts 278°
2026-04-22 20:16 48.01283 16.17935 14141 ft 369 kts 278°
2026-04-22 20:16 48.01463 16.14073 15004 ft 376 kts 278°
2026-04-22 20:16 48.01533 16.10136 15843 ft 387 kts 269°
2026-04-22 20:16 48.01045 16.06127 16686 ft 396 kts 261°
2026-04-22 20:17 48.00456 16.02078 17512 ft 402 kts 261°
2026-04-22 20:17 47.99843 15.97968 18307 ft 408 kts 261°
2026-04-22 20:17 47.99214 15.93811 18982 ft 414 kts 260°
2026-04-22 20:17 47.98573 15.89585 19633 ft 420 kts 260°
2026-04-22 20:18 47.97923 15.85307 20301 ft 425 kts 259°
2026-04-22 20:18 47.97270 15.80994 20988 ft 429 kts 259°
2026-04-22 20:18 47.96611 15.76634 21624 ft 433 kts 259°
2026-04-22 20:18 47.95945 15.72227 22270 ft 437 kts 259°
2026-04-22 20:19 47.95272 15.67786 22882 ft 442 kts 259°
2026-04-22 20:19 47.94591 15.63297 23424 ft 446 kts 259°
2026-04-22 20:19 47.93900 15.58761 23947 ft 450 kts 259°
2026-04-22 20:19 47.93203 15.54199 24397 ft 454 kts 258°
2026-04-22 20:20 47.92493 15.49569 24823 ft 459 kts 258°
2026-04-22 20:20 47.91774 15.44903 25260 ft 464 kts 258°
2026-04-22 20:20 47.91050 15.40203 25669 ft 468 kts 258°
2026-04-22 20:20 47.90318 15.35448 26111 ft 472 kts 258°
2026-04-22 20:21 47.89576 15.30661 26526 ft 476 kts 257°
2026-04-22 20:21 47.88824 15.25843 26944 ft 481 kts 257°
2026-04-22 20:21 47.88060 15.20970 27353 ft 485 kts 257°
2026-04-22 20:21 47.87293 15.16057 27765 ft 489 kts 257°
2026-04-22 20:22 47.86527 15.11179 28151 ft 493 kts 257°
2026-04-22 20:22 47.85742 15.06194 28533 ft 497 kts 257°
2026-04-22 20:22 47.84947 15.01167 28902 ft 501 kts 257°
2026-04-22 20:22 47.84143 14.96101 29276 ft 504 kts 256°
2026-04-22 20:23 47.83332 14.91007 29583 ft 508 kts 256°
2026-04-22 20:23 47.82510 14.85870 29943 ft 511 kts 256°
2026-04-22 20:23 47.81684 14.80716 30239 ft 514 kts 256°
2026-04-22 20:24 47.79992 14.70187 30279 ft 530 kts 256°
2026-04-22 20:24 47.78262 14.59505 30283 ft 533 kts 256°
2026-04-22 20:25 47.76500 14.48793 30283 ft 533 kts 255°
2026-04-22 20:25 47.74731 14.38117 30295 ft 530 kts 256°
2026-04-22 20:26 47.73003 14.27539 30284 ft 524 kts 256°
2026-04-22 20:26 47.71282 14.17034 30279 ft 523 kts 256°
2026-04-22 20:27 47.69533 14.06555 30287 ft 523 kts 256°
2026-04-22 20:27 47.67764 13.96079 30293 ft 523 kts 256°
2026-04-22 20:28 47.66000 13.85651 30294 ft 520 kts 256°
2026-04-22 20:28 47.64238 13.75237 30305 ft 521 kts 256°
2026-04-22 20:29 47.62463 13.64840 30302 ft 520 kts 256°
2026-04-22 20:29 47.60678 13.54469 30319 ft 518 kts 256°
2026-04-22 20:30 47.58893 13.44186 30264 ft 507 kts 256°
2026-04-22 20:30 47.58023 13.39199 29750 ft 495 kts 256°
2026-04-22 20:30 47.57168 13.34299 29150 ft 489 kts 256°
2026-04-22 20:30 47.56319 13.29447 28530 ft 483 kts 257°
2026-04-22 20:31 47.55483 13.24664 27925 ft 478 kts 256°
2026-04-22 20:31 47.54644 13.19866 27340 ft 488 kts 257°
2026-04-22 20:31 47.53787 13.14959 26756 ft 497 kts 257°
2026-04-22 20:31 47.52916 13.09998 26102 ft 499 kts 257°
2026-04-22 20:32 47.52040 13.05042 25483 ft 495 kts 257°
2026-04-22 20:32 47.51167 13.00133 24851 ft 492 kts 256°
2026-04-22 20:32 47.50298 12.95280 24252 ft 488 kts 257°
2026-04-22 20:32 47.49434 12.90465 23633 ft 492 kts 257°
2026-04-22 20:33 47.48558 12.85592 22922 ft 489 kts 257°
2026-04-22 20:33 47.47686 12.80762 22249 ft 483 kts 257°
2026-04-22 20:33 47.46824 12.75988 21566 ft 478 kts 257°
2026-04-22 20:33 47.45972 12.71260 20909 ft 473 kts 257°
2026-04-22 20:34 47.45133 12.66597 20272 ft 468 kts 257°
2026-04-22 20:34 47.44297 12.61974 19649 ft 463 kts 257°
2026-04-22 20:34 47.43467 12.57395 19043 ft 459 kts 257°
2026-04-22 20:34 47.42643 12.52871 18389 ft 455 kts 257°
2026-04-22 20:35 47.41821 12.48382 17707 ft 451 kts 257°
2026-04-22 20:35 47.41003 12.43934 17032 ft 447 kts 257°
2026-04-22 20:35 47.40193 12.39531 16380 ft 442 kts 257°
2026-04-22 20:35 47.39666 12.35111 15734 ft 435 kts 268°
2026-04-22 20:36 47.39691 12.30691 15104 ft 427 kts 278°
2026-04-22 20:36 47.40104 12.26388 14485 ft 422 kts 281°
2026-04-22 20:36 47.40518 12.22118 13852 ft 419 kts 281°
2026-04-22 20:36 47.40913 12.17873 13182 ft 415 kts 280°
2026-04-22 20:37 47.41295 12.13676 12517 ft 411 kts 280°
2026-04-22 20:37 47.41669 12.09525 11866 ft 404 kts 279°
2026-04-22 20:37 47.42036 12.05449 11227 ft 395 kts 279°
2026-04-22 20:37 47.42383 12.01470 10610 ft 387 kts 277°
2026-04-22 20:38 47.42226 11.97553 9988 ft 378 kts 257°
2026-04-22 20:38 47.41278 11.94069 9451 ft 356 kts 238°
2026-04-22 20:38 47.39755 11.91363 9079 ft 332 kts 220°
2026-04-22 20:38 47.37947 11.89519 9026 ft 302 kts 210°
2026-04-22 20:39 47.36211 11.87990 9047 ft 286 kts 210°
2026-04-22 20:39 47.34644 11.86284 9047 ft 268 kts 224°
2026-04-22 20:39 47.33520 11.84248 9043 ft 252 kts 238°
2026-04-22 20:39 47.32754 11.81980 9038 ft 239 kts 248°
2026-04-22 20:40 47.32190 11.79769 9042 ft 227 kts 255°
2026-04-22 20:40 47.31834 11.77593 9052 ft 210 kts 259°
2026-04-22 20:40 47.31549 11.75509 8739 ft 206 kts 260°
2026-04-22 20:40 47.31273 11.73462 8408 ft 201 kts 260°
2026-04-22 20:41 47.31000 11.71439 8059 ft 201 kts 260°
2026-04-22 20:41 47.30726 11.69427 7723 ft 199 kts 260°
2026-04-22 20:41 47.30455 11.67436 7390 ft 197 kts 260°
2026-04-22 20:41 47.30188 11.65478 7063 ft 193 kts 259°
2026-04-22 20:42 47.29925 11.63547 6754 ft 191 kts 259°
2026-04-22 20:42 47.29664 11.61641 6421 ft 189 kts 259°
2026-04-22 20:42 47.29405 11.59745 6086 ft 188 kts 259°
2026-04-22 20:42 47.29147 11.57863 5765 ft 187 kts 259°
2026-04-22 20:43 47.28891 11.56000 5406 ft 184 kts 259°
2026-04-22 20:43 47.28638 11.54159 5059 ft 183 kts 259°
2026-04-22 20:43 47.28386 11.52322 4719 ft 183 kts 259°
2026-04-22 20:43 47.28134 11.50493 4424 ft 182 kts 259°
2026-04-22 20:44 47.27882 11.48671 4153 ft 180 kts 259°
2026-04-22 20:44 47.27637 11.46897 3883 ft 174 kts 259°
2026-04-22 20:44 47.27393 11.45179 3750 ft 171 kts 256°
2026-04-22 20:44 47.26861 11.43626 3740 ft 171 kts 236°
2026-04-22 20:45 47.26192 11.42189 3745 ft 171 kts 234°
2026-04-22 20:45 47.25506 11.40759 3741 ft 172 kts 234°
2026-04-22 20:45 47.24817 11.39330 3740 ft 171 kts 234°
2026-04-22 20:45 47.24208 11.37938 3704 ft 152 kts 246°
2026-04-22 20:46 47.24035 11.35057 3736 ft 137 kts 268°
2026-04-22 20:46 47.24010 11.34135 3739 ft 135 kts 269°
2026-04-22 20:46 47.23965 11.32770 3750 ft 132 kts 269°
2026-04-22 20:47 47.23910 11.31433 3740 ft 131 kts 268°
2026-04-22 20:47 47.23855 11.30097 3739 ft 131 kts 269°
2026-04-22 20:47 47.23801 11.28760 3739 ft 131 kts 269°
2026-04-22 20:47 47.23746 11.27428 3738 ft 131 kts 269°
2026-04-22 20:48 47.23839 11.26120 3751 ft 129 kts 298°
2026-04-22 20:48 47.24528 11.25339 3795 ft 130 kts 349°
2026-04-22 20:48 47.25391 11.25656 3302 ft 136 kts 43°
2026-04-22 20:48 47.25527 11.26926 2997 ft 130 kts 99°
2026-04-22 20:49 47.25443 11.28240 2801 ft 128 kts 87°
2026-04-22 20:49 47.25512 11.29527 2665 ft 126 kts 84°
2026-04-22 20:49 47.25639 11.30804 2430 ft 125 kts 80°
2026-04-22 20:49 47.25772 11.32069 2116 ft 125 kts 82°
2026-04-22 20:50 47.25902 11.33318 1935 ft 122 kts 81°
2026-04-22 20:50 47.26017 11.34374 1900 ft 75 kts 81°
2026-04-22 20:50 47.26075 11.34894 1904 ft 43 kts 81°
2026-04-22 20:50 47.26100 11.35222 1904 ft 20 kts 111°
2026-04-22 20:51 47.26007 11.35273 1894 ft 12 kts 172°
2026-04-22 20:51 47.25924 11.35288 1904 ft 10 kts 180°
2026-04-22 20:51 47.25897 11.35216 1904 ft 8 kts 262°
2026-04-22 20:51 47.25893 11.35179 1894 ft 0 kts 261°
2026-04-22 20:52 47.25893 11.35175 1895 ft 2 kts 261°
2026-04-22 20:52 47.25891 11.35160 1900 ft 2 kts 261°
2026-04-22 20:52 47.25886 11.35120 1904 ft 6 kts 255°
2026-04-22 20:52 47.25851 11.35107 1904 ft 5 kts 179°
2026-04-22 20:53 47.25829 11.35110 1897 ft 0 kts 171°